Location: Qazi Observatory
(41.6337°N, 88.1517°W)
Time: 05:43:58
(UTC-05:00)

Amateur Radio Satellites - All Passes

Search period start: 24 July 2016 05:13
Search period end: 25 July 2016 05:13
Location: Qazi Observatory, 41.6337°N, 88.1517°W

Satellite Date Start Highest point End Downlink Frequencies (MHz)
Time Altitude Azimuth
HORYU 2 24 Jul 05:28:37 05:32:52 40° 98° (E) 05:37:04 437.375
CUBESAT XI-V 24 Jul 05:30:46 05:35:24 77° 258° (WSW) 05:40:02 437.345
ITAMSAT 1 24 Jul 05:32:51 05:35:41 15° 300° (WNW) 05:38:31 435.822/435.867
ISS 24 Jul 05:34:50 05:38:01 51° 220° (SW) 05:41:11 145.825
STRAND 1 24 Jul 05:37:48 05:38:27 10° 57° (ENE) 05:39:05 437.568
NOAA 15 24 Jul 05:38:29 05:40:22 12° 89° (E) 05:42:15 137.62
O/OREOS (USA 219) 24 Jul 05:54:20 05:56:24 13° 51° (NE) 05:58:27 437.305
BRITE-PL 24 Jul 06:08:12 06:12:22 30° 96° (E) 06:16:48 437.365/2234.400
RS-15 24 Jul 06:09:51 06:18:49 28° 101° (ESE) 06:28:05 29.354- 29.394
AIST 2 24 Jul 06:16:04 06:19:49 31° 49° (NE) 06:23:34 435.215
Cubesat XI-IV 24 Jul 06:19:34 06:23:46 23° 94° (E) 06:27:55 437.490
DANDE 24 Jul 06:22:56 06:27:12 20° 285° (WNW) 06:30:44 436.750
BEESAT 2 24 Jul 06:25:37 06:26:45 11° 252° (WSW) 06:27:53 435.950
CUTE-I 24 Jul 06:43:50 06:48:49 38° 98° (E) 06:53:45 437.470
PCSat 24 Jul 06:45:01 06:49:20 24° 253° (WSW) 06:53:37 145.827
NOAA 18 24 Jul 06:49:54 06:55:11 43° 99° (E) 07:00:24 137.9125
AO-7 24 Jul 06:55:12 07:01:09 22° 309° (NW) 07:07:06 29.400- 29.500
HORYU 2 24 Jul 07:05:52 07:09:08 20° 295° (WNW) 07:12:23 437.375
STRAND 1 24 Jul 07:11:35 07:16:43 76° 74° (ENE) 07:21:53 437.568
NOAA 15 24 Jul 07:15:29 07:20:46 83° 285° (WNW) 07:26:01 137.62
LilacSat-2 24 Jul 07:22:30 07:26:23 73° 283° (WNW) 07:30:13 437.200
GOMX 1 24 Jul 07:28:09 07:33:07 87° 105° (ESE) 07:38:24 467.674
O/OREOS (USA 219) 24 Jul 07:31:50 07:36:22 78° 250° (WSW) 07:40:55 437.305
DOVE 4 24 Jul 07:38:56 07:43:56 54° 100° (E) 07:49:04 437.250
BRITE-PL 24 Jul 07:46:44 07:50:48 30° 290° (WNW) 07:55:08 437.365/2234.400
AIST 2 24 Jul 07:54:42 07:58:13 26° 246° (WSW) 08:01:41 435.215
Cubesat XI-IV 24 Jul 07:58:56 08:04:02 46° 290° (WNW) 08:09:06 437.490
CINEMA 3 24 Jul 08:16:17 08:20:59 39° 97° (E) 08:25:38 145.822/145.860
HO-68 24 Jul 08:17:46 08:24:23 38° 97° (E) 08:30:56 435.675
RS-15 24 Jul 08:18:19 08:29:50 82° 304° (NW) 08:42:02 29.354- 29.394
YUBILEINY 24 Jul 08:21:06 08:24:01 12° 73° (ENE) 08:26:56 435.215
SEEDS 24 Jul 08:21:08 08:24:23 22° 94° (E) 08:27:35 437.485
PRISM 24 Jul 08:22:58 08:26:57 53° 73° (ENE) 08:30:55 437.425
CUTE-I 24 Jul 08:24:12 08:28:42 28° 295° (WNW) 08:33:10 437.470
NOAA 18 24 Jul 08:31:01 08:35:36 27° 296° (WNW) 08:40:10 137.9125
COMPASS 1 24 Jul 08:39:19 08:42:41 24° 95° (E) 08:46:02 437.405
Cosmos 2491 24 Jul 08:40:56 08:49:18 47° 74° (ENE) 08:57:38 435.465 / 435.565
STRAND 1 24 Jul 08:54:11 08:56:26 13° 271° (W) 08:58:42 437.568
Oscar 11 24 Jul 08:54:52 08:56:11 11° 89° (E) 08:57:31 145.826/435.025
CANX-2 24 Jul 08:56:21 09:00:36 89° 309° (NW) 09:04:48 2200.000
NOAA 15 24 Jul 08:57:58 08:59:42 12° 303° (WNW) 09:01:25 137.62
ANTELSAT 24 Jul 09:07:02 09:09:41 15° 62° (ENE) 09:12:22 437.575/2403.000
GOMX 1 24 Jul 09:08:36 09:10:35 12° 298° (WNW) 09:12:36 467.674
CUTE 1.7 + AOD 2 24 Jul 09:10:31 09:14:44 71° 284° (WNW) 09:18:53 437.475
AAUSAT CUBESAT 2 24 Jul 09:10:41 09:14:37 42° 98° (E) 09:18:32 437.432
SO-50 24 Jul 09:12:20 09:17:12 74° 121° (ESE) 09:22:04 436.795
DOVE 4 24 Jul 09:17:37 09:21:13 20° 295° (WNW) 09:24:56 437.250
UWE-3 24 Jul 09:31:47 09:36:17 46° 98° (E) 09:40:39 435.000/436.395/437.385
ZACube-1 24 Jul 09:40:18 09:44:31 37° 97° (E) 09:48:37 437.345
FUNcube-1 24 Jul 09:41:20 09:45:29 35° 96° (E) 09:49:32 145.935
CUBEBUG 2 24 Jul 09:46:31 09:51:17 84° 285° (WNW) 09:55:57 437.445
TIGRISAT 24 Jul 09:47:52 09:52:04 36° 69° (ENE) 09:56:20 435.000
CINEMA 3 24 Jul 09:53:47 09:57:53 26° 293° (WNW) 10:01:58 145.822/145.860
SEEDS 24 Jul 09:56:25 10:00:07 31° 290° (WNW) 10:03:45 437.485
AUBIESAT-1 24 Jul 09:57:08 09:59:52 15° 96° (E) 10:02:35 437.475
PRISM 24 Jul 10:00:56 10:02:34 12° 269° (W) 10:04:12 437.425
DELFI C3 24 Jul 10:02:19 10:05:40 26° 96° (E) 10:09:00 145.870
UNISAT 6 24 Jul 10:02:44 10:07:13 54° 73° (ENE) 10:11:48 437.425
HO-68 24 Jul 10:05:25 10:12:07 43° 295° (WNW) 10:18:48 435.675
YUBILEINY 24 Jul 10:10:20 10:19:00 69° 93° (E) 10:27:46 435.215
Cosmos 2504 24 Jul 10:11:58 10:18:40 25° 80° (E) 10:25:23 435.465 / 435.565
COMPASS 1 24 Jul 10:14:42 10:18:13 27° 291° (WNW) 10:21:42 437.405
NANOSAT C BR1 24 Jul 10:23:17 10:25:21 13° 63° (ENE) 10:27:26 145.865
Oscar 11 24 Jul 10:28:28 10:32:44 64° 286° (WNW) 10:36:59 145.826/435.025
DUCHIFAT 1 24 Jul 10:28:58 10:31:16 15° 64° (ENE) 10:33:36 145.980
RS-15 24 Jul 10:34:18 10:44:29 32° 332° (NNW) 10:55:06 29.354- 29.394
Cosmos 2491 24 Jul 10:38:06 10:45:56 39° 274° (W) 10:53:47 435.465 / 435.565
ANTELSAT 24 Jul 10:41:19 10:45:51 61° 260° (W) 10:50:31 437.575/2403.000
QB50P1 24 Jul 10:42:17 10:45:35 22° 67° (ENE) 10:48:54 145.935-145.965
AAUSAT CUBESAT 2 24 Jul 10:47:12 10:49:46 16° 295° (WNW) 10:52:18 437.432
POPSAT HIP 1 24 Jul 10:48:10 10:51:39 25° 68° (ENE) 10:55:10 437.405
SO-50 24 Jul 10:54:46 10:58:13 19° 320° (NW) 11:01:38 436.795
BUGSAT 1 24 Jul 10:57:59 10:59:51 13° 63° (ENE) 11:01:42 437.445
M-CUBED/EXP-1 PRIME 24 Jul 11:00:52 11:05:34 85° 107° (ESE) 11:10:17 437.505
JAS-2 24 Jul 11:03:21 11:07:05 17° 62° (ENE) 11:10:38 435.910
QB50P2 24 Jul 11:07:35 11:11:37 44° 72° (ENE) 11:15:41 145.880/145.840
ESTCUBE 1 24 Jul 11:09:01 11:10:56 12° 90° (E) 11:12:52 437.505/2401.250
UWE-3 24 Jul 11:09:08 11:12:21 19° 295° (WNW) 11:15:31 435.000/436.395/437.385
POLYITAN 1 24 Jul 11:10:13 11:14:15 45° 72° (ENE) 11:18:21 437.675
ZACube-1 24 Jul 11:17:04 11:20:33 22° 294° (WNW) 11:23:57 437.345
FUNcube-1 24 Jul 11:17:59 11:21:30 23° 294° (WNW) 11:24:58 145.935
HUMSAT D 24 Jul 11:24:05 11:28:18 72° 285° (WNW) 11:32:26 437.325/437.525
TIGRISAT 24 Jul 11:25:10 11:28:49 23° 266° (W) 11:32:32 435.000
AUBIESAT-1 24 Jul 11:30:03 11:34:36 59° 292° (WNW) 11:39:10 437.475
DELFI C3 24 Jul 11:37:17 11:40:24 23° 292° (WNW) 11:43:30 145.870
VELOX 1 24 Jul 11:39:14 11:41:51 15° 92° (E) 11:44:29 145.980
UNISAT 6 24 Jul 11:41:33 11:44:16 15° 270° (W) 11:47:01 437.425
CUBEBUG 1 24 Jul 11:48:31 11:51:58 22° 94° (E) 11:55:25 437.445
NANOSAT C BR1 24 Jul 11:56:26 12:00:35 57° 259° (W) 12:04:48 145.865
SPROUT 24 Jul 11:59:49 12:01:18 11° 90° (E) 12:02:46 437.525
Cosmos 2504 24 Jul 12:02:21 12:11:10 74° 279° (W) 12:20:05 435.465 / 435.565
DUCHIFAT 1 24 Jul 12:02:25 12:06:31 52° 260° (W) 12:10:41 145.980
Oscar 19 24 Jul 12:05:55 12:08:53 16° 60° (ENE) 12:11:50 437.125/150
YUBILEINY 24 Jul 12:09:25 12:16:33 27° 294° (WNW) 12:23:46 435.215
QB50P1 24 Jul 12:17:23 12:21:10 32° 263° (W) 12:25:01 145.935-145.965
50 SAT 24 Jul 12:18:22 12:21:48 40° 99° (E) 12:25:12 437.505
AISAT 24 Jul 12:22:21 12:26:40 47° 100° (E) 12:30:58 437.250
POPSAT HIP 1 24 Jul 12:23:41 12:27:20 28° 264° (W) 12:31:02 437.405
BUGSAT 1 24 Jul 12:30:44 12:34:43 56° 260° (W) 12:38:47 437.445
DX 1 24 Jul 12:33:46 12:37:57 42° 99° (E) 12:42:06 434.975-435.025
M-CUBED/EXP-1 PRIME 24 Jul 12:37:21 12:39:26 13° 304° (NW) 12:41:32 437.505
ESTCUBE 1 24 Jul 12:43:43 12:48:09 62° 286° (WNW) 12:52:33 437.505/2401.250
QB50P2 24 Jul 12:45:01 12:47:38 16° 268° (W) 12:50:17 145.880/145.840
JAS-2 24 Jul 12:45:28 12:51:44 72° 257° (WSW) 12:57:20 435.910
POLYITAN 1 24 Jul 12:47:42 12:50:17 16° 268° (W) 12:52:54 437.675
RS-15 24 Jul 12:53:05 13:02:22 24° 7° (N) 13:11:46 29.354- 29.394
UKube-1 24 Jul 12:53:36 12:57:53 56° 101° (E) 13:02:07 .
Gurwin Techsat 1B 24 Jul 12:58:49 13:02:51 22° 64° (ENE) 13:06:54 435.225
TISAT 1 24 Jul 13:06:22 13:08:48 15° 92° (E) 13:11:14 437.305
VELOX 1 24 Jul 13:14:18 13:18:35 50° 288° (WNW) 13:22:53 145.980
CUBEBUG 1 24 Jul 13:24:21 13:28:17 33° 290° (WNW) 13:32:14 437.445
ITAMSAT 1 24 Jul 13:33:01 13:36:07 16° 60° (ENE) 13:39:12 435.822/435.867
SPROUT 24 Jul 13:33:21 13:37:38 63° 286° (WNW) 13:41:54 437.525
Oscar 19 24 Jul 13:42:31 13:47:36 70° 258° (WSW) 13:52:44 437.125/150
50 SAT 24 Jul 13:53:23 13:55:04 13° 295° (WNW) 13:56:45 437.505
AISAT 24 Jul 13:59:50 14:02:47 18° 296° (WNW) 14:05:43 437.250
Cosmos 2504 24 Jul 14:01:08 14:06:11 16° 301° (WNW) 14:11:17 435.465 / 435.565
AO-7 24 Jul 14:09:15 14:16:08 30° 56° (NE) 14:23:01 29.400- 29.500
DX 1 24 Jul 14:10:49 14:13:49 18° 295° (WNW) 14:16:49 434.975-435.025
AIST 1 24 Jul 14:12:08 14:16:22 74° 278° (W) 14:20:38
GONETS M04 24 Jul 14:21:40 14:27:05 19° 77° (ENE) 14:32:29
UKube-1 24 Jul 14:31:08 14:33:28 14° 297° (WNW) 14:35:48 .
Gurwin Techsat 1B 24 Jul 14:37:18 14:42:27 49° 261° (W) 14:47:37 435.225
TISAT 1 24 Jul 14:40:36 14:44:42 47° 288° (WNW) 14:48:47 437.305
SWISSCUBE 24 Jul 14:46:05 14:50:30 37° 98° (E) 14:54:54 437.505
AO-85 24 Jul 14:46:12 14:51:35 70° 120° (ESE) 14:56:44 145.980
RS-15 24 Jul 15:07:38 15:19:18 45° 40° (NE) 15:30:53 29.354- 29.394
BEESAT 24 Jul 15:07:40 15:12:22 56° 101° (E) 15:17:01 436.000
ITAMSAT 1 24 Jul 15:09:46 15:14:58 71° 257° (WSW) 15:20:13 435.822/435.867
Cosmos 2499 24 Jul 15:12:50 15:20:14 31° 83° (E) 15:27:32 435.465 / 435.565
DANDE 24 Jul 15:18:11 15:19:42 14° 73° (ENE) 15:21:14 436.750
CUSAT 1 24 Jul 15:23:37 15:26:25 84° 265° (W) 15:29:50 437.405
ITUPSAT 1 24 Jul 15:28:37 15:33:26 89° 114° (ESE) 15:38:11 437.325
AO-7 24 Jul 15:59:57 16:08:15 69° 255° (WSW) 16:16:38 29.400- 29.500
KKS-1 24 Jul 16:04:36 16:08:21 25° 95° (E) 16:12:04 437.445
SO-50 24 Jul 16:05:07 16:07:06 12° 34° (NE) 16:09:03 436.795
GONETS M04 24 Jul 16:13:56 16:22:38 88° 277° (W) 16:31:25
MOZHAYETS 4 24 Jul 16:16:13 16:20:29 37° 97° (E) 16:24:41
SWISSCUBE 24 Jul 16:24:19 16:28:06 24° 294° (WNW) 16:31:52 437.505
HORYU 2 24 Jul 16:26:38 16:30:47 39° 70° (ENE) 16:34:59 437.375
AO-85 24 Jul 16:28:28 16:32:31 22° 317° (NW) 16:36:25 145.980
NOAA 18 24 Jul 16:39:47 16:42:03 13° 56° (NE) 16:44:18 137.9125
BEESAT 24 Jul 16:46:40 16:49:41 17° 298° (WNW) 16:52:42 436.000
STARS 24 Jul 16:51:24 16:55:37 40° 99° (E) 16:59:47 437.465
NOAA 15 24 Jul 16:57:48 17:01:42 22° 63° (ENE) 17:05:35 137.62
DANDE 24 Jul 17:01:35 17:02:18 11° 268° (W) 17:03:01 436.750
Cosmos 2499 24 Jul 17:04:03 17:12:48 61° 282° (WNW) 17:21:28 435.465 / 435.565
ITUPSAT 1 24 Jul 17:09:12 17:10:31 11° 301° (WNW) 17:11:49 437.325
BRITE-PL 24 Jul 17:20:12 17:23:50 30° 70° (ENE) 17:27:28 437.365/2234.400
RS-15 24 Jul 17:20:25 17:32:36 68° 245° (WSW) 17:44:35 29.354- 29.394
CUBESAT XI-V 24 Jul 17:27:32 17:31:22 26° 95° (E) 17:35:12 437.345
PHONESAT 2.4 24 Jul 17:38:53 17:40:11 12° 149° (SSE) 17:41:29 2401.200-2431.200
KKS-1 24 Jul 17:40:58 17:44:54 31° 292° (WNW) 17:48:49 437.445
Cubesat XI-IV 24 Jul 17:41:26 17:46:23 39° 68° (ENE) 17:51:22 437.490
SO-50 24 Jul 17:43:51 17:48:30 68° 55° (NE) 17:52:59 436.795
MOZHAYETS 4 24 Jul 17:53:53 17:57:25 22° 294° (WNW) 18:00:56
AO-7 24 Jul 17:59:39 18:02:28 12° 274° (W) 18:05:17 29.400- 29.500
HORYU 2 24 Jul 18:04:10 18:07:28 20° 266° (W) 18:10:48 437.375
LilacSat-2 24 Jul 18:04:16 18:08:02 53° 74° (ENE) 18:11:50 437.200
CUTE-I 24 Jul 18:05:40 18:10:58 65° 73° (ENE) 18:16:18 437.470
GONETS M04 24 Jul 18:15:06 18:20:47 19° 299° (WNW) 18:26:34
NOAA 18 24 Jul 18:16:17 18:21:49 82° 74° (ENE) 18:27:23 137.9125
STARS 24 Jul 18:28:26 18:31:41 20° 295° (WNW) 18:34:55 437.465
NOAA 15 24 Jul 18:36:01 18:41:06 51° 260° (W) 18:46:13 137.62
GOMX 1 24 Jul 18:37:06 18:41:14 88° 258° (WSW) 18:45:32 467.674
BEESAT 3 24 Jul 18:38:23 18:41:11 19° 112° (ESE) 18:44:00 437.485
BEESAT 2 24 Jul 18:41:04 18:41:31 10° 108° (ESE) 18:41:58 435.950
DOVE 4 24 Jul 18:45:02 18:49:06 49° 73° (ENE) 18:53:24 437.250
HO-68 24 Jul 18:47:05 18:53:05 30° 60° (ENE) 18:59:06 435.675
BRITE-PL 24 Jul 18:59:13 19:02:24 21° 266° (W) 19:05:35 437.365/2234.400
Cosmos 2499 24 Jul 19:04:26 19:07:53 13° 304° (NW) 19:11:20 435.465 / 435.565
CUBESAT XI-V 24 Jul 19:04:41 19:08:45 32° 291° (WNW) 19:12:49 437.345
PHONESAT 2.4 24 Jul 19:13:16 19:16:12 42° 164° (SSE) 19:19:10 2401.200-2431.200
SEEDS 24 Jul 19:13:37 19:16:20 17° 65° (ENE) 19:19:02 437.485
CINEMA 3 24 Jul 19:18:11 19:22:11 33° 69° (ENE) 19:26:21 145.822/145.860
Cubesat XI-IV 24 Jul 19:22:00 19:26:32 28° 265° (W) 19:31:06 437.490
STRAND 1 24 Jul 19:22:31 19:26:43 25° 94° (E) 19:30:51 437.568
SO-50 24 Jul 19:26:08 19:28:21 13° 252° (WSW) 19:30:32 436.795
COMPASS 1 24 Jul 19:30:47 19:33:36 18° 66° (ENE) 19:36:26 437.405
RS-15 24 Jul 19:36:50 19:42:34 15° 266° (W) 19:48:17 29.354- 29.394
LilacSat-2 24 Jul 19:41:37 19:42:39 11° 270° (W) 19:43:42 437.200
PCSat 24 Jul 19:42:51 19:47:53 41° 112° (ESE) 19:52:58 145.827
CUTE-I 24 Jul 19:48:09 19:51:27 16° 269° (W) 19:54:46 437.470
CANX-2 24 Jul 19:48:50 19:53:04 65° 75° (ENE) 19:57:19 2200.000
Oscar 11 24 Jul 19:51:24 19:51:45 10° 61° (ENE) 19:52:04 145.826/435.025
NOAA 18 24 Jul 20:00:40 20:03:07 13° 271° (W) 20:05:35 137.9125
AAUSAT CUBESAT 2 24 Jul 20:01:06 20:04:44 29° 70° (ENE) 20:08:21 437.432
CUTE 1.7 + AOD 2 24 Jul 20:02:48 20:07:05 81° 75° (ENE) 20:11:23 437.475
O/OREOS (USA 219) 24 Jul 20:08:30 20:09:50 11° 97° (E) 20:11:11 437.305
BEESAT 2 24 Jul 20:14:49 20:18:45 69° 304° (NW) 20:22:44 435.950
BEESAT 3 24 Jul 20:14:56 20:18:36 37° 309° (NW) 20:22:18 437.485
M-CUBED/EXP-1 PRIME 24 Jul 20:17:23 20:17:41 10° 54° (NE) 20:17:58 437.505
YUBILEINY 24 Jul 20:20:38 20:28:32 34° 70° (ENE) 20:36:19 435.215
DOVE 4 24 Jul 20:24:54 20:27:11 14° 270° (W) 20:29:33 437.250
UWE-3 24 Jul 20:28:35 20:32:47 38° 71° (ENE) 20:37:05 435.000/436.395/437.385
HO-68 24 Jul 20:33:22 20:40:24 57° 258° (WSW) 20:47:30 435.675
ZACube-1 24 Jul 20:36:03 20:39:59 30° 69° (ENE) 20:43:59 437.345
FUNcube-1 24 Jul 20:36:48 20:40:41 29° 69° (ENE) 20:44:37 145.935
AUBIESAT-1 24 Jul 20:43:38 20:46:04 16° 58° (ENE) 20:48:38 437.475
CUBEBUG 2 24 Jul 20:44:10 20:48:42 81° 76° (ENE) 20:53:25 437.445
SEEDS 24 Jul 20:47:38 20:51:41 44° 261° (W) 20:55:45 437.485
DELFI C3 24 Jul 20:49:04 20:51:42 17° 66° (ENE) 20:54:19 145.870
PHONESAT 2.4 24 Jul 20:49:31 20:52:36 73° 180° (S) 20:55:41 2401.200-2431.200
CINEMA 3 24 Jul 20:55:46 20:59:22 24° 267° (W) 21:03:07 145.822/145.860
STRAND 1 24 Jul 21:01:15 21:05:59 39° 291° (WNW) 21:10:42 437.568
COMPASS 1 24 Jul 21:04:56 21:08:52 40° 262° (W) 21:12:49 437.405
Oscar 11 24 Jul 21:22:50 21:27:11 83° 257° (WSW) 21:31:34 145.826/435.025
PCSat 24 Jul 21:26:37 21:31:23 31° 310° (NW) 21:36:12 145.827
CANX-2 24 Jul 21:28:10 21:29:20 11° 271° (W) 21:30:30 2200.000
AAUSAT CUBESAT 2 24 Jul 21:36:54 21:40:12 22° 266° (W) 21:43:31 437.432
PRISM 24 Jul 21:39:13 21:43:20 87° 104° (ESE) 21:47:26 437.425
AO-85 24 Jul 21:40:44 21:41:25 10° 31° (NNE) 21:42:06 145.980
Cosmos 2491 24 Jul 21:42:09 21:50:30 53° 90° (E) 21:58:51 435.465 / 435.565
O/OREOS (USA 219) 24 Jul 21:44:10 21:48:36 67° 295° (WNW) 21:53:04 437.305
M-CUBED/EXP-1 PRIME 24 Jul 21:47:50 21:51:29 75° 253° (WSW) 21:55:30 437.505
AIST 2 24 Jul 21:51:28 21:55:30 59° 119° (ESE) 21:59:35 435.215
Cosmos 2504 24 Jul 21:55:54 22:03:43 43° 73° (ENE) 22:10:56 435.465 / 435.565
UNISAT 6 24 Jul 21:56:41 21:58:15 11° 88° (E) 21:59:47 437.425
UWE-3 24 Jul 22:05:54 22:09:21 21° 267° (W) 22:12:53 435.000/436.395/437.385
ESTCUBE 1 24 Jul 22:09:11 22:11:16 13° 62° (ENE) 22:13:21 437.505/2401.250
ZACube-1 24 Jul 22:12:26 22:16:14 26° 266° (W) 22:20:06 437.345
FUNcube-1 24 Jul 22:13:01 22:16:52 28° 265° (W) 22:20:47 145.935
ISS 24 Jul 22:14:09 22:17:13 40° 138° (SE) 22:20:18 145.825
HUMSAT D 24 Jul 22:14:50 22:19:08 78° 76° (ENE) 22:23:28 437.325/437.525
AUBIESAT-1 24 Jul 22:16:39 22:20:10 41° 257° (WSW) 22:23:58 437.475
YUBILEINY 24 Jul 22:17:08 22:25:39 54° 270° (W) 22:34:06 435.215
DELFI C3 24 Jul 22:22:33 22:26:15 37° 262° (W) 22:29:59 145.870
PHONESAT 2.4 24 Jul 22:26:03 22:28:58 40° 197° (SSW) 22:31:53 2401.200-2431.200
ANTELSAT 24 Jul 22:33:15 22:37:17 28° 95° (E) 22:41:14 437.575/2403.000
VELOX 1 24 Jul 22:37:17 22:39:44 15° 63° (ENE) 22:42:12 145.980
CUBEBUG 1 24 Jul 22:45:06 22:48:12 20° 66° (ENE) 22:51:18 437.445
50 SAT 24 Jul 22:56:37 22:59:21 20° 68° (ENE) 23:02:05 437.505
TIGRISAT 24 Jul 23:15:20 23:20:01 76° 101° (E) 23:24:34 435.000
AO-85 24 Jul 23:18:35 23:22:59 57° 54° (NE) 23:26:59 145.980
AISAT 24 Jul 23:19:48 23:23:55 42° 71° (ENE) 23:28:05 437.250
DX 1 24 Jul 23:29:24 23:33:23 37° 70° (ENE) 23:37:24 434.975-435.025
UNISAT 6 24 Jul 23:30:48 23:35:28 71° 285° (WNW) 23:40:00 437.425
AIST 2 24 Jul 23:31:36 23:34:21 17° 318° (NW) 23:37:07 435.215
Cosmos 2491 24 Jul 23:39:56 23:47:38 34° 290° (WNW) 23:55:24 435.465 / 435.565
NANOSAT C BR1 24 Jul 23:41:10 23:44:30 22° 94° (E) 23:47:48 145.865
ESTCUBE 1 24 Jul 23:43:03 23:47:31 67° 259° (WSW) 23:52:00 437.505/2401.250
DUCHIFAT 1 24 Jul 23:46:44 23:50:11 23° 95° (E) 23:53:36 145.980
UKube-1 24 Jul 23:48:07 23:52:14 47° 72° (ENE) 23:56:23 .
Cosmos 2504 24 Jul 23:49:34 23:56:57 38° 274° (W) 00:03:51 435.465 / 435.565
ISS 24 Jul 23:50:48 23:53:43 29° 336° (NNW) 23:56:38 145.825
JAS-2 24 Jul 23:56:38 23:58:10 11° 90° (E) 23:59:43 435.910
TISAT 1 24 Jul 23:59:17 00:00:59 12° 62° (ENE) 00:02:40 437.305
QB50P1 25 Jul 00:01:27 00:05:29 38° 98° (E) 00:09:28 145.935-145.965
PHONESAT 2.4 25 Jul 00:04:02 00:04:58 11° 212° (SSW) 00:05:55 2401.200-2431.200
POPSAT HIP 1 25 Jul 00:07:34 00:11:42 44° 99° (E) 00:15:47 437.405
ANTELSAT 25 Jul 00:09:55 00:13:56 29° 292° (WNW) 00:17:52 437.575/2403.000
VELOX 1 25 Jul 00:11:27 00:15:45 55° 260° (W) 00:20:04 145.980
BUGSAT 1 25 Jul 00:12:51 00:16:02 20° 94° (E) 00:19:12 437.445
AIST 1 25 Jul 00:19:09 00:22:50 26° 74° (ENE) 00:26:31
CUBEBUG 1 25 Jul 00:20:12 00:24:13 38° 262° (W) 00:28:16 437.445
SPROUT 25 Jul 00:26:37 00:30:53 82° 258° (WSW) 00:35:12 437.525
QB50P2 25 Jul 00:27:40 00:32:00 82° 104° (ESE) 00:36:17 145.880/145.840
50 SAT 25 Jul 00:29:43 00:32:50 26° 263° (W) 00:35:58 437.505
POLYITAN 1 25 Jul 00:30:19 00:34:39 84° 101° (ESE) 00:38:56 437.675
TIGRISAT 25 Jul 00:54:06 00:56:02 12° 299° (WNW) 00:57:57 435.000
AISAT 25 Jul 00:57:39 01:00:36 18° 267° (W) 01:03:33 437.250
AO-85 25 Jul 01:00:43 01:02:48 13° 253° (WSW) 01:04:47 145.980
ITUPSAT 1 25 Jul 01:00:49 01:02:55 13° 60° (ENE) 01:05:02 437.325
DX 1 25 Jul 01:06:36 01:09:42 19° 266° (W) 01:12:49 434.975-435.025
NANOSAT C BR1 25 Jul 01:16:27 01:20:16 32° 290° (WNW) 01:24:05 145.865
DUCHIFAT 1 25 Jul 01:22:07 01:25:52 30° 291° (WNW) 01:29:36 145.980
UKube-1 25 Jul 01:26:02 01:28:33 15° 268° (W) 01:31:03 .
ISS 25 Jul 01:29:02 01:30:56 14° 356° (N) 01:32:51 145.825
TISAT 1 25 Jul 01:31:56 01:36:05 64° 259° (WSW) 01:40:17 437.305
QB50P1 25 Jul 01:37:54 01:40:58 19° 294° (WNW) 01:44:02 145.935-145.965
JAS-2 25 Jul 01:38:35 01:43:51 84° 284° (WNW) 01:49:29 435.910
POPSAT HIP 1 25 Jul 01:44:19 01:47:07 17° 295° (WNW) 01:49:56 437.405
BUGSAT 1 25 Jul 01:47:36 01:51:29 35° 290° (WNW) 01:55:20 437.445
SWISSCUBE 25 Jul 01:52:31 01:57:04 44° 71° (ENE) 02:01:37 437.505
Oscar 19 25 Jul 01:53:54 01:58:46 40° 98° (E) 02:03:37 437.125/150
AIST 1 25 Jul 01:56:46 02:00:20 25° 271° (W) 02:03:53
QB50P2 25 Jul 02:07:04 02:07:07 10° 299° (WNW) 02:07:10 145.880/145.840
BEESAT 25 Jul 02:13:58 02:18:43 66° 73° (ENE) 02:23:29 436.000
GONETS M04 25 Jul 02:24:02 02:32:29 48° 75° (ENE) 02:40:54
ITUPSAT 1 25 Jul 02:35:17 02:40:06 78° 257° (WSW) 02:44:55 437.325
Gurwin Techsat 1B 25 Jul 02:53:02 02:58:20 65° 102° (ESE) 03:03:37 435.225
BEESAT 3 25 Jul 02:55:02 02:57:29 16° 42° (NE) 02:59:56 437.485
Cosmos 2499 25 Jul 02:56:03 03:03:47 51° 75° (ENE) 03:10:56 435.465 / 435.565
BEESAT 2 25 Jul 02:57:21 02:58:00 10° 37° (NE) 02:58:40 435.950
KKS-1 25 Jul 03:02:59 03:06:34 25° 67° (ENE) 03:10:11 437.445
ISS 25 Jul 03:05:50 03:08:18 19° 16° (NNE) 03:10:46 145.825
MOZHAYETS 4 25 Jul 03:18:05 03:22:19 36° 70° (ENE) 03:26:34
ITAMSAT 1 25 Jul 03:22:35 03:27:28 40° 98° (E) 03:32:17 435.822/435.867
JAS-2 25 Jul 03:26:58 03:28:13 11° 302° (WNW) 03:29:29 435.910
SWISSCUBE 25 Jul 03:31:35 03:35:03 20° 267° (W) 03:38:32 437.505
Oscar 19 25 Jul 03:33:40 03:37:51 26° 295° (WNW) 03:42:03 437.125/150
STARS 25 Jul 03:48:08 03:52:08 36° 70° (ENE) 03:56:11 437.465
BEESAT 25 Jul 03:54:41 03:56:56 13° 270° (W) 03:59:12 436.000
AO-7 25 Jul 04:01:31 04:09:19 41° 99° (E) 04:17:01 29.400- 29.500
GONETS M04 25 Jul 04:21:13 04:29:04 38° 274° (W) 04:36:58
DANDE 25 Jul 04:24:32 04:30:09 40° 97° (E) 04:34:27 436.750
CUSAT 1 25 Jul 04:26:47 04:31:18 74° 279° (W) 04:34:46 437.405
PCSat 25 Jul 04:30:18 04:35:19 36° 52° (NE) 04:40:18 145.827
CUBESAT XI-V 25 Jul 04:31:06 04:34:55 26° 68° (ENE) 04:38:45 437.345
BEESAT 3 25 Jul 04:31:37 04:35:33 61° 241° (WSW) 04:39:26 437.485
BEESAT 2 25 Jul 04:32:34 04:36:35 72° 57° (ENE) 04:40:34 435.950
Gurwin Techsat 1B 25 Jul 04:34:19 04:37:44 18° 299° (WNW) 04:41:10 435.225
KKS-1 25 Jul 04:39:03 04:42:59 31° 263° (W) 04:46:58 437.445
ISS 25 Jul 04:41:52 04:45:08 81° 36° (NE) 04:48:23 145.825
Cosmos 2499 25 Jul 04:49:52 04:56:27 30° 277° (W) 05:02:39 435.465 / 435.565
MOZHAYETS 4 25 Jul 04:55:55 04:59:33 23° 266° (W) 05:03:13
ITAMSAT 1 25 Jul 05:02:28 05:06:43 26° 295° (WNW) 05:10:57 435.822/435.867
